Year,Month,Day,Hour,Minute,Value (Times are PST for temperature in C)
2016,04,21,00,00,11.40
2016,04,21,00,01,11.40
2016,04,21,00,02,11.40
2016,04,21,00,03,11.40
2016,04,21,00,04,11.40
2016,04,21,00,05,11.40
2016,04,21,00,06,11.40
2016,04,21,00,07,11.40
2016,04,21,00,08,11.40
2016,04,21,00,09,11.40
2016,04,21,00,10,11.40
2016,04,21,00,11,11.40
2016,04,21,00,12,11.40
2016,04,21,00,17,11.50
2016,04,21,00,18,11.50
2016,04,21,00,19,11.50
2016,04,21,00,20,11.50
2016,04,21,00,21,11.50
2016,04,21,00,22,11.50
2016,04,21,00,23,11.50
2016,04,21,00,24,11.50
2016,04,21,00,25,11.50
2016,04,21,00,26,11.50
2016,04,21,00,27,11.50
2016,04,21,00,28,11.50
2016,04,21,00,29,11.50
2016,04,21,00,30,11.50
2016,04,21,00,31,11.50
2016,04,21,00,32,11.50
2016,04,21,00,33,11.60
2016,04,21,00,34,11.60
2016,04,21,00,35,11.60
2016,04,21,00,36,11.60
2016,04,21,00,37,11.60
2016,04,21,00,38,11.60
2016,04,21,00,39,11.60
2016,04,21,00,40,11.60
2016,04,21,00,41,11.60
2016,04,21,00,42,11.60
2016,04,21,00,43,11.60
2016,04,21,00,44,11.60
2016,04,21,00,45,11.50
2016,04,21,00,46,11.50
2016,04,21,00,47,11.50
2016,04,21,00,48,11.50
2016,04,21,00,49,11.50
2016,04,21,00,50,11.50
2016,04,21,00,51,11.50
2016,04,21,00,52,11.40
2016,04,21,00,53,11.40
2016,04,21,00,54,11.40
2016,04,21,00,55,11.40
2016,04,21,00,56,11.40
2016,04,21,00,57,11.40
2016,04,21,00,58,11.40
2016,04,21,00,59,11.30
2016,04,21,01,00,11.30
2016,04,21,01,01,11.30
2016,04,21,01,02,11.30
2016,04,21,01,03,11.30
2016,04,21,01,04,11.30
2016,04,21,01,05,11.30
2016,04,21,01,06,11.30
2016,04,21,01,07,11.30
2016,04,21,01,08,11.30
2016,04,21,01,09,11.30
2016,04,21,01,10,11.30
2016,04,21,01,11,11.30
2016,04,21,01,12,11.20
2016,04,21,01,13,11.20
2016,04,21,01,14,11.20
2016,04,21,01,15,11.20
2016,04,21,01,16,11.20
2016,04,21,01,17,11.20
2016,04,21,01,18,11.20
2016,04,21,01,19,11.20
2016,04,21,01,20,11.20
2016,04,21,01,21,11.20
2016,04,21,01,22,11.20
2016,04,21,01,23,11.20
2016,04,21,01,24,11.20
2016,04,21,01,25,11.20
2016,04,21,01,26,11.20
2016,04,21,01,27,11.20
2016,04,21,01,28,11.20
2016,04,21,01,29,11.20
2016,04,21,01,30,11.20
2016,04,21,01,31,11.20
2016,04,21,01,32,11.20
2016,04,21,01,33,11.20
2016,04,21,01,34,11.20
2016,04,21,01,35,11.20
2016,04,21,01,36,11.20
2016,04,21,01,37,11.20
2016,04,21,01,38,11.20
2016,04,21,01,39,11.20
2016,04,21,01,40,11.20
2016,04,21,01,41,11.20
2016,04,21,01,42,11.30
2016,04,21,01,43,11.30
2016,04,21,01,44,11.30
2016,04,21,01,45,11.30
2016,04,21,01,46,11.30
2016,04,21,01,47,11.30
2016,04,21,01,48,11.30
2016,04,21,01,49,11.30
2016,04,21,01,50,11.20
2016,04,21,01,51,11.20
2016,04,21,01,52,11.20
2016,04,21,01,53,11.20
2016,04,21,01,54,11.20
2016,04,21,01,55,11.20
2016,04,21,01,56,11.20
2016,04,21,01,57,11.20
2016,04,21,01,58,11.20
2016,04,21,01,59,11.20
2016,04,21,02,00,11.20
2016,04,21,02,01,11.20
2016,04,21,02,02,11.20
2016,04,21,02,03,11.20
2016,04,21,02,04,11.20
2016,04,21,02,05,11.20
2016,04,21,02,06,11.20
2016,04,21,02,07,11.20
2016,04,21,02,08,11.20
2016,04,21,02,09,11.20
2016,04,21,02,10,11.20
2016,04,21,02,11,11.20
2016,04,21,02,12,11.30
2016,04,21,02,13,11.30
2016,04,21,02,14,11.30
2016,04,21,02,15,11.30
2016,04,21,02,16,11.30
2016,04,21,02,17,11.30
2016,04,21,02,18,11.30
2016,04,21,02,19,11.30
2016,04,21,02,20,11.30
2016,04,21,02,21,11.30
2016,04,21,02,22,11.30
2016,04,21,02,23,11.30
2016,04,21,02,24,11.30
2016,04,21,02,25,11.30
2016,04,21,02,26,11.30
2016,04,21,02,27,11.30
2016,04,21,02,28,11.30
2016,04,21,02,29,11.30
2016,04,21,02,30,11.30
2016,04,21,02,31,11.30
2016,04,21,02,32,11.30
2016,04,21,02,33,11.30
2016,04,21,02,34,11.30
2016,04,21,02,35,11.30
2016,04,21,02,36,11.30
2016,04,21,02,37,11.30
2016,04,21,02,38,11.30
2016,04,21,02,39,11.30
2016,04,21,02,40,11.30
2016,04,21,02,41,11.30
2016,04,21,02,42,11.30
2016,04,21,02,43,11.30
2016,04,21,02,44,11.30
2016,04,21,02,45,11.30
2016,04,21,02,46,11.30
2016,04,21,02,47,11.30
2016,04,21,02,48,11.30
2016,04,21,02,49,11.30
2016,04,21,02,50,11.30
2016,04,21,02,51,11.30
2016,04,21,02,52,11.30
2016,04,21,02,53,11.30
2016,04,21,02,54,11.30
2016,04,21,02,55,11.30
2016,04,21,02,56,11.30
2016,04,21,02,57,11.30
2016,04,21,02,58,11.30
2016,04,21,02,59,11.30
2016,04,21,03,00,11.30
2016,04,21,03,01,11.30
2016,04,21,03,02,11.30
2016,04,21,03,03,11.30
2016,04,21,03,04,11.30
2016,04,21,03,05,11.30
2016,04,21,03,06,11.30
2016,04,21,03,07,11.30
2016,04,21,03,08,11.30
2016,04,21,03,09,11.30
2016,04,21,03,10,11.30
2016,04,21,03,11,11.30
2016,04,21,03,12,11.30
2016,04,21,03,13,11.30
2016,04,21,03,14,11.30
2016,04,21,03,15,11.30
2016,04,21,03,16,11.20
2016,04,21,03,17,11.30
2016,04,21,03,18,11.30
2016,04,21,03,19,11.20
2016,04,21,03,20,11.20
2016,04,21,03,21,11.20
2016,04,21,03,22,11.20
2016,04,21,03,23,11.20
2016,04,21,03,24,11.20
2016,04,21,03,25,11.20
2016,04,21,03,26,11.20
2016,04,21,03,27,11.20
2016,04,21,03,28,11.20
2016,04,21,03,29,11.20
2016,04,21,03,30,11.20
2016,04,21,03,31,11.10
2016,04,21,03,32,11.10
2016,04,21,03,33,11.10
2016,04,21,03,34,11.10
2016,04,21,03,35,11.10
2016,04,21,03,36,11.10
2016,04,21,03,37,11.10
2016,04,21,03,38,11.10
2016,04,21,03,39,11.10
2016,04,21,03,40,11.10
2016,04,21,03,41,11.10
2016,04,21,03,42,11.10
2016,04,21,03,43,11.00
2016,04,21,03,44,11.00
2016,04,21,03,45,11.00
2016,04,21,03,46,11.00
2016,04,21,03,47,11.00
2016,04,21,03,48,11.00
2016,04,21,03,49,11.00
2016,04,21,03,50,11.00
2016,04,21,03,51,11.00
2016,04,21,03,52,11.00
2016,04,21,03,53,11.00
2016,04,21,03,54,11.00
2016,04,21,03,55,11.00
2016,04,21,03,56,11.00
2016,04,21,03,57,11.00
2016,04,21,03,58,11.00
2016,04,21,03,59,11.00
2016,04,21,04,00,11.00
2016,04,21,04,01,11.00
2016,04,21,04,02,10.90
2016,04,21,04,03,11.00
2016,04,21,04,04,10.90
2016,04,21,04,05,11.00
2016,04,21,04,06,10.90
2016,04,21,04,07,10.90
2016,04,21,04,08,10.90
2016,04,21,04,09,10.90
2016,04,21,04,10,10.90
2016,04,21,04,11,10.90
2016,04,21,04,12,11.00
2016,04,21,04,13,10.90
2016,04,21,04,14,10.90
2016,04,21,04,15,11.00
2016,04,21,04,16,10.90
2016,04,21,04,17,10.90
2016,04,21,04,18,10.90
2016,04,21,04,19,10.90
2016,04,21,04,20,10.90
2016,04,21,04,21,10.90
2016,04,21,04,22,10.90
2016,04,21,04,23,10.90
2016,04,21,04,24,10.90
2016,04,21,04,25,10.90
2016,04,21,04,26,10.90
2016,04,21,04,27,10.90
2016,04,21,04,28,10.90
2016,04,21,04,29,10.90
2016,04,21,04,30,10.90
2016,04,21,04,31,10.90
2016,04,21,04,32,10.90
2016,04,21,04,33,10.90
2016,04,21,04,34,10.90
2016,04,21,04,35,10.90
2016,04,21,04,36,10.90
2016,04,21,04,37,10.90
2016,04,21,04,38,10.90
2016,04,21,04,39,10.90
2016,04,21,04,40,10.90
2016,04,21,04,41,10.90
2016,04,21,04,42,10.90
2016,04,21,04,43,10.90
2016,04,21,04,44,10.90
2016,04,21,04,45,10.90
2016,04,21,04,46,10.90
2016,04,21,04,47,10.90
2016,04,21,04,48,10.90
2016,04,21,04,49,10.90
2016,04,21,04,50,10.90
2016,04,21,04,51,10.90
2016,04,21,04,52,10.90
2016,04,21,04,53,10.90
2016,04,21,04,54,10.90
2016,04,21,04,55,10.90
2016,04,21,04,56,10.80
2016,04,21,04,57,10.80
2016,04,21,04,58,10.80
2016,04,21,04,59,10.80
2016,04,21,05,00,10.80
2016,04,21,05,01,10.80
2016,04,21,05,02,10.80
2016,04,21,05,03,10.80
2016,04,21,05,04,10.80
2016,04,21,05,05,10.80
2016,04,21,05,06,10.80
2016,04,21,05,07,10.90
2016,04,21,05,08,10.90
2016,04,21,05,09,10.80
2016,04,21,05,10,10.80
2016,04,21,05,11,10.80
2016,04,21,05,12,10.80
2016,04,21,05,13,10.80
2016,04,21,05,14,10.80
2016,04,21,05,15,10.80
2016,04,21,05,16,10.80
2016,04,21,05,17,10.80
2016,04,21,05,18,10.80
2016,04,21,05,19,10.80
2016,04,21,05,20,10.80
2016,04,21,05,21,10.80
2016,04,21,05,22,10.80
2016,04,21,05,23,10.80
2016,04,21,05,24,10.80
2016,04,21,05,25,10.80
2016,04,21,05,26,10.80
2016,04,21,05,27,10.80
2016,04,21,05,28,10.80
2016,04,21,05,29,10.90
2016,04,21,05,30,10.80
2016,04,21,05,31,10.80
2016,04,21,05,32,10.80
2016,04,21,05,33,10.80
2016,04,21,05,34,10.80
2016,04,21,05,35,10.80
2016,04,21,05,36,10.80
2016,04,21,05,37,10.80
2016,04,21,05,38,10.80
2016,04,21,05,39,10.80
2016,04,21,05,40,10.80
2016,04,21,05,41,10.80
2016,04,21,05,42,10.80
2016,04,21,05,43,10.80
2016,04,21,05,44,10.80
2016,04,21,05,45,10.80
2016,04,21,05,46,10.80
2016,04,21,05,47,10.80
2016,04,21,05,48,10.80
2016,04,21,05,49,10.80
2016,04,21,05,50,10.80
2016,04,21,05,51,10.80
2016,04,21,05,52,10.80
2016,04,21,05,53,10.80
2016,04,21,05,54,10.80
2016,04,21,05,55,10.80
2016,04,21,05,56,10.80
2016,04,21,05,57,10.80
2016,04,21,05,58,10.70
2016,04,21,05,59,10.70
2016,04,21,06,00,10.70
2016,04,21,06,01,10.70
2016,04,21,06,02,10.70
2016,04,21,06,03,10.70
2016,04,21,06,04,10.70
2016,04,21,06,05,10.70
2016,04,21,06,06,10.70
2016,04,21,06,07,10.70
2016,04,21,06,08,10.70
2016,04,21,06,09,10.70
2016,04,21,06,10,10.70
2016,04,21,06,11,10.70
2016,04,21,06,12,10.70
2016,04,21,06,13,10.60
2016,04,21,06,14,10.60
2016,04,21,06,15,10.60
2016,04,21,06,16,10.60
2016,04,21,06,17,10.60
2016,04,21,06,18,10.60
2016,04,21,06,19,10.60
2016,04,21,06,20,10.60
2016,04,21,06,21,10.60
2016,04,21,06,22,10.60
2016,04,21,06,23,10.60
2016,04,21,06,24,10.70
2016,04,21,06,25,10.70
2016,04,21,06,26,10.70
2016,04,21,06,27,10.70
2016,04,21,06,28,10.70
2016,04,21,06,29,10.70
2016,04,21,06,30,10.70
2016,04,21,06,31,10.70
2016,04,21,06,32,10.70
2016,04,21,06,33,10.70
2016,04,21,06,34,10.70
2016,04,21,06,35,10.70
2016,04,21,06,36,10.70
2016,04,21,06,37,10.70
2016,04,21,06,38,10.70
2016,04,21,06,39,10.70
2016,04,21,06,40,10.70
2016,04,21,06,41,10.70
2016,04,21,06,42,10.70
2016,04,21,06,43,10.70
2016,04,21,06,44,10.70
2016,04,21,06,45,10.70
2016,04,21,06,46,10.70
2016,04,21,06,47,10.70
2016,04,21,06,48,10.70
2016,04,21,06,49,10.70
2016,04,21,06,50,10.70
2016,04,21,06,51,10.70
2016,04,21,06,52,10.70
2016,04,21,06,53,10.70
2016,04,21,06,54,10.70
2016,04,21,06,55,10.70
2016,04,21,06,56,10.70
2016,04,21,06,57,10.70
2016,04,21,06,58,10.70
2016,04,21,06,59,10.70
2016,04,21,07,00,10.70
2016,04,21,07,01,10.70
2016,04,21,07,02,10.70
2016,04,21,07,03,10.70
2016,04,21,07,04,10.70
2016,04,21,07,05,10.70
2016,04,21,07,06,10.70
2016,04,21,07,07,10.70
2016,04,21,07,08,10.80
2016,04,21,07,09,10.80
2016,04,21,07,10,10.80
2016,04,21,07,11,10.80
2016,04,21,07,12,10.80
2016,04,21,07,13,10.80
2016,04,21,07,14,10.80
2016,04,21,07,15,10.80
2016,04,21,07,16,10.80
2016,04,21,07,17,10.80
2016,04,21,07,18,10.80
2016,04,21,07,19,10.80
2016,04,21,07,20,10.80
2016,04,21,07,21,10.80
2016,04,21,07,22,10.80
2016,04,21,07,23,10.80
2016,04,21,07,24,10.80
2016,04,21,07,25,10.90
2016,04,21,07,26,10.90
2016,04,21,07,27,10.90
2016,04,21,07,28,10.90
2016,04,21,07,29,10.90
2016,04,21,07,30,10.90
2016,04,21,07,31,10.90
2016,04,21,07,32,10.90
2016,04,21,07,33,10.90
2016,04,21,07,34,10.90
2016,04,21,07,35,10.90
2016,04,21,07,36,10.90
2016,04,21,07,37,10.90
2016,04,21,07,38,10.90
2016,04,21,07,39,10.90
2016,04,21,07,40,11.00
2016,04,21,07,41,11.00
2016,04,21,07,42,11.00
2016,04,21,07,43,11.00
2016,04,21,07,44,11.00
2016,04,21,07,45,11.00
2016,04,21,07,46,11.10
2016,04,21,07,47,11.10
2016,04,21,07,48,11.10
2016,04,21,07,49,11.10
2016,04,21,07,50,11.10
2016,04,21,07,51,11.10
2016,04,21,07,52,11.10
2016,04,21,07,53,11.10
2016,04,21,07,54,11.10
2016,04,21,07,55,11.10
2016,04,21,07,56,11.10
2016,04,21,07,57,11.20
2016,04,21,07,58,11.20
2016,04,21,07,59,11.20
2016,04,21,08,00,11.20
2016,04,21,08,01,11.20
2016,04,21,08,02,11.20
2016,04,21,08,03,11.20
2016,04,21,08,04,11.20
2016,04,21,08,05,11.20
2016,04,21,08,06,11.20
2016,04,21,08,07,11.20
2016,04,21,08,08,11.20
2016,04,21,08,09,11.20
2016,04,21,08,10,11.20
2016,04,21,08,11,11.30
2016,04,21,08,12,11.30
2016,04,21,08,13,11.30
2016,04,21,08,14,11.30
2016,04,21,08,15,11.30
2016,04,21,08,16,11.30
2016,04,21,08,17,11.30
2016,04,21,08,18,11.40
2016,04,21,08,19,11.40
2016,04,21,08,20,11.40
2016,04,21,08,21,11.40
2016,04,21,08,22,11.40
2016,04,21,08,23,11.40
2016,04,21,08,24,11.40
2016,04,21,08,25,11.40
2016,04,21,08,26,11.40
2016,04,21,08,27,11.40
2016,04,21,08,28,11.40
2016,04,21,08,29,11.40
2016,04,21,08,30,11.40
2016,04,21,08,31,11.40
2016,04,21,08,32,11.40
2016,04,21,08,33,11.40
2016,04,21,08,34,11.40
2016,04,21,08,35,11.50
2016,04,21,08,36,11.50
2016,04,21,08,37,11.50
2016,04,21,08,38,11.50
2016,04,21,08,39,11.50
2016,04,21,08,40,11.50
2016,04,21,08,41,11.50
2016,04,21,08,42,11.60
2016,04,21,08,43,11.60
2016,04,21,08,44,11.60
2016,04,21,08,45,11.60
2016,04,21,08,46,11.60
2016,04,21,08,47,11.70
2016,04,21,08,48,11.70
2016,04,21,08,49,11.70
2016,04,21,08,50,11.70
2016,04,21,08,51,11.70
2016,04,21,08,52,11.70
2016,04,21,08,53,11.80
2016,04,21,08,54,11.80
2016,04,21,08,55,11.80
2016,04,21,08,56,11.80
2016,04,21,08,57,11.90
2016,04,21,08,58,11.90
2016,04,21,08,59,11.90
2016,04,21,09,00,11.90
2016,04,21,09,01,12.00
2016,04,21,09,02,12.00
2016,04,21,09,03,12.10
2016,04,21,09,04,12.10
2016,04,21,09,05,12.10
2016,04,21,09,06,12.10
2016,04,21,09,07,12.10
2016,04,21,09,08,12.20
2016,04,21,09,09,12.20
2016,04,21,09,10,12.20
2016,04,21,09,11,12.30
2016,04,21,09,12,12.30
2016,04,21,09,13,12.40
2016,04,21,09,14,12.40
2016,04,21,09,15,12.40
2016,04,21,09,16,12.50
2016,04,21,09,17,12.50
2016,04,21,09,18,12.50
2016,04,21,09,19,12.60
2016,04,21,09,20,12.60
2016,04,21,09,21,12.70
2016,04,21,09,22,12.70
2016,04,21,09,23,12.80
2016,04,21,09,24,12.80
2016,04,21,09,25,12.80
2016,04,21,09,26,12.80
2016,04,21,09,27,12.90
2016,04,21,09,28,12.90
2016,04,21,09,29,12.90
2016,04,21,09,30,12.90
2016,04,21,09,31,13.00
2016,04,21,09,32,13.00
2016,04,21,09,33,13.00
2016,04,21,09,34,13.00
2016,04,21,09,35,13.00
2016,04,21,09,36,13.10
2016,04,21,09,37,13.10
2016,04,21,09,38,13.10
2016,04,21,09,39,13.10
2016,04,21,09,40,13.10
2016,04,21,09,41,13.10
2016,04,21,09,42,13.10
2016,04,21,09,43,13.10
2016,04,21,09,44,13.10
2016,04,21,09,45,13.10
2016,04,21,09,46,13.20
2016,04,21,09,47,13.20
2016,04,21,09,48,13.20
2016,04,21,09,49,13.20
2016,04,21,09,50,13.20
2016,04,21,09,51,13.20
2016,04,21,09,52,13.20
2016,04,21,09,53,13.20
2016,04,21,09,54,13.20
2016,04,21,09,55,13.20
2016,04,21,09,56,13.20
2016,04,21,09,57,13.20
2016,04,21,09,58,13.20
2016,04,21,09,59,13.20
2016,04,21,10,00,13.20
2016,04,21,10,01,13.20
2016,04,21,10,02,13.20
2016,04,21,10,03,13.20
2016,04,21,10,04,13.20
2016,04,21,10,05,13.20
2016,04,21,10,06,13.20
2016,04,21,10,07,13.30
2016,04,21,10,08,13.30
2016,04,21,10,09,13.30
2016,04,21,10,10,13.30
2016,04,21,10,11,13.30
2016,04,21,10,12,13.40
2016,04,21,10,13,13.40
2016,04,21,10,14,13.40
2016,04,21,10,15,13.50
2016,04,21,10,16,13.50
2016,04,21,10,17,13.50
2016,04,21,10,18,13.60
2016,04,21,10,19,13.60
2016,04,21,10,20,13.60
2016,04,21,10,21,13.60
2016,04,21,10,22,13.60
2016,04,21,10,23,13.60
2016,04,21,10,24,13.60
2016,04,21,10,25,13.70
2016,04,21,10,26,13.70
2016,04,21,10,27,13.70
2016,04,21,10,28,13.70
2016,04,21,10,29,13.70
2016,04,21,10,30,13.80
2016,04,21,10,31,13.80
2016,04,21,10,32,13.90
2016,04,21,10,33,14.00
2016,04,21,10,34,14.00
2016,04,21,10,35,14.10
2016,04,21,10,36,14.10
2016,04,21,10,37,14.20
2016,04,21,10,38,14.10
2016,04,21,10,39,14.10
2016,04,21,10,40,14.10
2016,04,21,10,41,14.10
2016,04,21,10,42,14.20
2016,04,21,10,43,14.20
2016,04,21,10,44,14.30
2016,04,21,10,45,14.40
2016,04,21,10,46,14.40
2016,04,21,10,47,14.50
2016,04,21,10,48,14.60
2016,04,21,10,49,14.60
2016,04,21,10,50,14.60
2016,04,21,10,51,14.50
2016,04,21,10,52,14.60
2016,04,21,10,53,14.60
2016,04,21,10,54,14.60
2016,04,21,10,55,14.60
2016,04,21,10,56,14.70
2016,04,21,10,57,14.70
2016,04,21,10,58,14.70
2016,04,21,10,59,14.70
2016,04,21,11,00,14.70
2016,04,21,11,01,14.70
2016,04,21,11,02,14.70
2016,04,21,11,03,14.70
2016,04,21,11,04,14.70
2016,04,21,11,05,14.70
2016,04,21,11,06,14.70
2016,04,21,11,07,14.80
2016,04,21,11,08,14.80
2016,04,21,11,09,14.90
2016,04,21,11,10,14.90
2016,04,21,11,11,14.90
2016,04,21,11,12,14.80
2016,04,21,11,13,14.80
2016,04,21,11,14,14.80
2016,04,21,11,15,14.80
2016,04,21,11,16,14.80
2016,04,21,11,17,14.80
2016,04,21,11,18,14.70
2016,04,21,11,19,14.70
2016,04,21,11,20,14.70
2016,04,21,11,21,14.70
2016,04,21,11,22,14.80
2016,04,21,11,23,14.80
2016,04,21,11,24,14.90
2016,04,21,11,25,14.90
2016,04,21,11,26,14.90
2016,04,21,11,27,15.00
2016,04,21,11,28,15.00
2016,04,21,11,29,15.00
2016,04,21,11,30,14.90
2016,04,21,11,31,14.90
2016,04,21,11,32,14.90
2016,04,21,11,33,14.90
2016,04,21,11,34,14.90
2016,04,21,11,35,14.90
2016,04,21,11,36,14.90
2016,04,21,11,37,14.90
2016,04,21,11,38,14.90
2016,04,21,11,39,14.90
2016,04,21,11,40,14.80
2016,04,21,11,41,14.80
2016,04,21,11,42,14.80
2016,04,21,11,43,14.80
2016,04,21,11,44,14.80
2016,04,21,11,45,14.70
2016,04,21,11,46,14.70
2016,04,21,11,47,14.70
2016,04,21,11,48,14.60
2016,04,21,11,49,14.50
2016,04,21,11,50,14.50
2016,04,21,11,51,14.50
2016,04,21,11,52,14.50
2016,04,21,11,53,14.50
2016,04,21,11,54,14.50
2016,04,21,11,55,14.60
2016,04,21,11,56,14.60
2016,04,21,11,57,14.60
2016,04,21,11,58,14.60
2016,04,21,11,59,14.60
2016,04,21,12,00,14.70
2016,04,21,12,01,14.70
2016,04,21,12,02,14.80
2016,04,21,12,03,14.80
2016,04,21,12,04,14.80
2016,04,21,12,05,14.80
2016,04,21,12,06,14.80
2016,04,21,12,07,14.80
2016,04,21,12,08,14.80
2016,04,21,12,09,14.80
2016,04,21,12,10,14.80
2016,04,21,12,11,14.90
2016,04,21,12,12,14.90
2016,04,21,12,13,15.00
2016,04,21,12,14,15.10
2016,04,21,12,15,15.20
2016,04,21,12,16,15.40
2016,04,21,12,17,15.50
2016,04,21,12,18,15.60
2016,04,21,12,19,15.60
2016,04,21,12,20,15.70
2016,04,21,12,21,15.70
2016,04,21,12,22,15.80
2016,04,21,12,23,15.80
2016,04,21,12,24,15.80
2016,04,21,12,25,15.70
2016,04,21,12,26,15.70
2016,04,21,12,27,15.60
2016,04,21,12,28,15.50
2016,04,21,12,29,15.50
2016,04,21,12,30,15.40
2016,04,21,12,31,15.30
2016,04,21,12,32,15.30
2016,04,21,12,33,15.30
2016,04,21,12,34,15.20
2016,04,21,12,35,15.20
2016,04,21,12,36,15.20
2016,04,21,12,37,15.20
2016,04,21,12,38,15.20
2016,04,21,12,39,15.20
2016,04,21,12,40,15.30
2016,04,21,12,41,15.40
2016,04,21,12,42,15.40
2016,04,21,12,43,15.40
2016,04,21,12,44,15.50
2016,04,21,12,45,15.50
2016,04,21,12,46,15.60
2016,04,21,12,47,15.70
2016,04,21,12,48,15.70
2016,04,21,12,49,15.70
2016,04,21,12,50,15.80
2016,04,21,12,51,15.80
2016,04,21,12,52,15.80
2016,04,21,12,53,15.80
2016,04,21,12,54,15.80
2016,04,21,12,55,15.90
2016,04,21,12,56,15.90
2016,04,21,12,57,16.00
2016,04,21,12,58,16.00
2016,04,21,12,59,16.00
2016,04,21,13,00,16.10
2016,04,21,13,01,16.10
2016,04,21,13,02,16.10
2016,04,21,13,03,16.20
2016,04,21,13,04,16.20
2016,04,21,13,05,16.20
2016,04,21,13,06,16.20
2016,04,21,13,07,16.30
2016,04,21,13,08,16.30
2016,04,21,13,09,16.40
2016,04,21,13,10,16.50
2016,04,21,13,11,16.60
2016,04,21,13,12,16.70
2016,04,21,13,13,16.90
2016,04,21,13,14,17.00
2016,04,21,13,15,17.10
2016,04,21,13,16,17.10
2016,04,21,13,17,17.10
2016,04,21,13,18,17.10
2016,04,21,13,19,17.10
2016,04,21,13,20,17.10
2016,04,21,13,21,17.20
2016,04,21,13,22,17.20
2016,04,21,13,23,17.20
2016,04,21,13,24,17.20
2016,04,21,13,25,17.20
2016,04,21,13,26,17.10
2016,04,21,13,27,17.10
2016,04,21,13,28,17.10
2016,04,21,13,29,17.10
2016,04,21,13,30,17.20
2016,04,21,13,31,17.20
2016,04,21,13,32,17.10
2016,04,21,13,33,17.10
2016,04,21,13,34,17.00
2016,04,21,13,35,17.00
2016,04,21,13,36,17.00
2016,04,21,13,37,16.90
2016,04,21,13,38,17.00
2016,04,21,13,39,17.00
2016,04,21,13,40,17.10
2016,04,21,13,41,17.10
2016,04,21,13,42,17.10
2016,04,21,13,43,17.10
2016,04,21,13,44,17.10
2016,04,21,13,45,17.00
2016,04,21,13,46,16.90
2016,04,21,13,47,16.70
2016,04,21,13,48,16.50
2016,04,21,13,49,16.40
2016,04,21,13,50,16.30
2016,04,21,13,51,16.30
2016,04,21,13,52,16.30
2016,04,21,13,53,16.30
2016,04,21,13,54,16.30
2016,04,21,13,55,16.30
2016,04,21,13,56,16.30
2016,04,21,13,57,16.30
2016,04,21,13,58,16.30
2016,04,21,13,59,16.30
2016,04,21,14,00,16.30
2016,04,21,14,01,16.30
2016,04,21,14,02,16.30
2016,04,21,14,03,16.30
2016,04,21,14,04,16.30
2016,04,21,14,05,16.30
2016,04,21,14,06,16.20
2016,04,21,14,07,16.20
2016,04,21,14,08,16.20
2016,04,21,14,09,16.20
2016,04,21,14,10,16.20
2016,04,21,14,11,16.20
2016,04,21,14,12,16.30
2016,04,21,14,13,16.30
2016,04,21,14,14,16.40
2016,04,21,14,15,16.50
2016,04,21,14,16,16.50
2016,04,21,14,17,16.50
2016,04,21,14,18,16.60
2016,04,21,14,19,16.60
2016,04,21,14,20,16.60
2016,04,21,14,21,16.60
2016,04,21,14,22,16.50
2016,04,21,14,23,16.50
2016,04,21,14,24,16.40
2016,04,21,14,25,16.30
2016,04,21,14,26,16.30
2016,04,21,14,27,16.20
2016,04,21,14,28,16.10
2016,04,21,14,29,16.00
2016,04,21,14,30,15.80
2016,04,21,14,31,15.70
2016,04,21,14,32,15.60
2016,04,21,14,33,15.50
2016,04,21,14,34,15.40
2016,04,21,14,35,15.30
2016,04,21,14,36,15.20
2016,04,21,14,37,15.10
2016,04,21,14,38,15.00
2016,04,21,14,39,15.00
2016,04,21,14,40,14.90
2016,04,21,14,41,14.90
2016,04,21,14,42,14.90
2016,04,21,14,43,14.90
2016,04,21,14,44,14.90
2016,04,21,14,45,15.00
2016,04,21,14,46,15.10
2016,04,21,14,47,15.10
2016,04,21,14,48,15.20
2016,04,21,14,49,15.40
2016,04,21,14,50,15.50
2016,04,21,14,51,15.70
2016,04,21,14,52,15.80
2016,04,21,14,53,15.90
2016,04,21,14,54,16.00
2016,04,21,14,55,16.10
2016,04,21,14,56,16.10
2016,04,21,14,57,16.10
2016,04,21,14,58,16.10
2016,04,21,14,59,16.20
2016,04,21,15,00,16.30
2016,04,21,15,01,16.40
2016,04,21,15,02,16.50
2016,04,21,15,03,16.50
2016,04,21,15,04,16.70
2016,04,21,15,05,16.80
2016,04,21,15,06,16.90
2016,04,21,15,07,17.00
2016,04,21,15,08,17.10
2016,04,21,15,09,17.10
2016,04,21,15,10,17.20
2016,04,21,15,11,17.10
2016,04,21,15,12,17.00
2016,04,21,15,13,16.90
2016,04,21,15,14,16.80
2016,04,21,15,15,16.60
2016,04,21,15,16,16.50
2016,04,21,15,17,16.40
2016,04,21,15,18,16.30
2016,04,21,15,19,16.20
2016,04,21,15,20,16.10
2016,04,21,15,21,16.00
2016,04,21,15,22,16.00
2016,04,21,15,23,16.00
2016,04,21,15,24,16.10
2016,04,21,15,25,16.10
2016,04,21,15,26,16.10
2016,04,21,15,27,16.00
2016,04,21,15,28,15.90
2016,04,21,15,29,15.90
2016,04,21,15,30,15.80
2016,04,21,15,31,15.80
2016,04,21,15,32,15.80
2016,04,21,15,33,15.70
2016,04,21,15,34,15.70
2016,04,21,15,35,15.70
2016,04,21,15,36,15.70
2016,04,21,15,37,15.70
2016,04,21,15,38,15.60
2016,04,21,15,39,15.60
2016,04,21,15,40,15.50
2016,04,21,15,41,15.40
2016,04,21,15,42,15.40
2016,04,21,15,43,15.30
2016,04,21,15,44,15.30
2016,04,21,15,45,15.30
2016,04,21,15,46,15.20
2016,04,21,15,47,15.10
2016,04,21,15,48,15.10
2016,04,21,15,49,15.10
2016,04,21,15,50,15.00
2016,04,21,15,51,14.90
2016,04,21,15,52,14.90
2016,04,21,15,53,14.80
2016,04,21,15,54,14.80
2016,04,21,15,55,14.70
2016,04,21,15,56,14.70
2016,04,21,15,57,14.70
2016,04,21,15,58,14.70
2016,04,21,15,59,14.70
2016,04,21,16,00,14.70
2016,04,21,16,01,14.70
2016,04,21,16,02,14.70
2016,04,21,16,03,14.60
2016,04,21,16,04,14.60
2016,04,21,16,05,14.60
2016,04,21,16,06,14.70
2016,04,21,16,07,14.70
2016,04,21,16,08,14.70
2016,04,21,16,09,14.70
2016,04,21,16,10,14.80
2016,04,21,16,11,14.80
2016,04,21,16,12,14.80
2016,04,21,16,13,14.80
2016,04,21,16,14,14.70
2016,04,21,16,15,14.70
2016,04,21,16,16,14.70
2016,04,21,16,17,14.60
2016,04,21,16,18,14.60
2016,04,21,16,19,14.50
2016,04,21,16,20,14.50
2016,04,21,16,21,14.50
2016,04,21,16,22,14.40
2016,04,21,16,23,14.40
2016,04,21,16,24,14.40
2016,04,21,16,25,14.40
2016,04,21,16,26,14.30
2016,04,21,16,27,14.30
2016,04,21,16,28,14.30
2016,04,21,16,29,14.30
2016,04,21,16,30,14.30
2016,04,21,16,31,14.30
2016,04,21,16,32,14.30
2016,04,21,16,33,14.30
2016,04,21,16,34,14.30
2016,04,21,16,35,14.30
2016,04,21,16,36,14.30
2016,04,21,16,37,14.40
2016,04,21,16,38,14.40
2016,04,21,16,39,14.40
2016,04,21,16,40,14.40
2016,04,21,16,41,14.40
2016,04,21,16,42,14.40
2016,04,21,16,43,14.50
2016,04,21,16,44,14.50
2016,04,21,16,45,14.50
2016,04,21,16,46,14.60
2016,04,21,16,47,14.60
2016,04,21,16,48,14.60
2016,04,21,16,49,14.70
2016,04,21,16,50,14.70
2016,04,21,16,51,14.80
2016,04,21,16,52,14.80
2016,04,21,16,53,14.90
2016,04,21,16,54,14.90
2016,04,21,16,55,15.00
2016,04,21,16,56,15.00
2016,04,21,16,57,15.10
2016,04,21,16,58,15.20
2016,04,21,16,59,15.20
2016,04,21,17,00,15.30
2016,04,21,17,01,15.30
2016,04,21,17,02,15.30
2016,04,21,17,03,15.40
2016,04,21,17,04,15.40
2016,04,21,17,05,15.40
2016,04,21,17,06,15.50
2016,04,21,17,07,15.50
2016,04,21,17,08,15.50
2016,04,21,17,09,15.60
2016,04,21,17,10,15.60
2016,04,21,17,11,15.60
2016,04,21,17,12,15.60
2016,04,21,17,13,15.70
2016,04,21,17,14,15.70
2016,04,21,17,15,15.70
2016,04,21,17,16,15.70
2016,04,21,17,17,15.70
2016,04,21,17,18,15.80
2016,04,21,17,19,15.80
2016,04,21,17,20,15.80
2016,04,21,17,21,15.80
2016,04,21,17,22,15.90
2016,04,21,17,23,15.90